Flag for Canada Weather past 2 weeks in Miramichi, New Brunswick, Canada

Now
63 °F

Clear.


Feels Like: 63 °F
Forecast: 59 / 75 °F
Wind: 6 mph from Northwest

Location: Bathurst Airport

Current Time: Aug 20, 2014 at 2:47:43 AM

Latest Report: Aug 20, 2014 at 2:00 AM


Visibility: 15 mi

Pressure: 29.85 "Hg

Humidity: 77%

Dew point: 55 °F

Location of MiramichiLocation

Historic Weather in Miramichi — Graph

°F

Miramichi temperature yesterday

Maximum temperature yesterday: 73 °F (at 4:00 PM)
Minimum temperature yesterday: 59 °F (at 3:00 AM)
Average temperature yesterday: 65 °F

Past Weeks' High & Low Weather Summary

 TemperatureHumidityPressure
High84 °F (Aug 5, 4:00 PM)100% (Aug 5, 1:00 AM)30.19 "Hg (Aug 5, 1:00 AM)
Low48 °F (Aug 10, 6:00 AM)43% (Aug 5, 4:00 PM)29.64 "Hg (Aug 18, 2:00 PM)
Average63 °F84%29.91 "Hg
* Reported Aug 5 1:00 AM — Aug 20 1:00 AM, Miramichi, Weather by CustomWeather, © 2014

Note: Actual official high and low records may vary slightly from our data, if they occured in-between our weather recording intervals... More about our weather records

Advertising

Miramichi weather history for previous 24 hours

 ConditionsComfort  
Time TempWeatherWind HumidityBarometerVisibility
1:00 AM
Aug 20
61 °FClear.5 mph83%29.84 "Hg15 mi
12:00 AM63 °FClear.5 mph77%29.83 "Hg15 mi
11:00 PM
Aug 19
63 °FClear.6 mph83%29.83 "Hg15 mi
10:00 PM64 °FClear.5 mph78%29.83 "Hg15 mi
9:00 PM66 °FScattered clouds.3 mph73%29.81 "Hg15 mi
8:00 PM70 °FBroken clouds.5 mph69%29.80 "Hg15 mi
7:00 PM73 °FPartly sunny.5 mph57%29.78 "Hg15 mi
6:00 PM73 °FBroken clouds.7 mph57%29.77 "Hg15 mi
5:00 PM73 °FBroken clouds.9 mph57%29.76 "Hg15 mi
4:00 PM73 °FScattered clouds.12 mph57%29.75 "Hg15 mi
3:00 PM72 °FScattered clouds.10 mph61%29.75 "Hg15 mi
2:00 PM72 °FPartly sunny.9 mph61%29.76 "Hg15 mi
1:00 PM70 °FScattered showers. Broken clouds.12 mph69%29.76 "Hg15 mi
12:00 PM66 °FScattered showers. Partly sunny.13 mph73%29.76 "Hg15 mi
11:00 AM66 °FScattered showers. Broken clouds.10 mph73%29.74 "Hg15 mi
10:00 AM64 °FScattered showers. Partly sunny.9 mph73%29.73 "Hg15 mi
9:00 AM61 °FSprinkles. Broken clouds.10 mph83%29.73 "Hg15 mi
8:00 AM61 °FSprinkles. Broken clouds.8 mph83%29.73 "Hg15 mi
7:00 AM59 °FScattered showers. Passing clouds.8 mph88%29.72 "Hg12 mi
6:00 AM61 °FMostly cloudy.7 mph83%29.72 "Hg15 mi
5:00 AM61 °FOvercast.7 mph83%29.70 "Hg15 mi
4:00 AM61 °FOvercast.8 mph83%29.70 "Hg15 mi
3:00 AM59 °FOvercast.7 mph94%29.70 "Hg15 mi
2:00 AM61 °FOvercast.7 mph83%29.70 "Hg15 mi
Weather by CustomWeather, © 2014

See weather overviewHow to use our weather pages